Regional Weather Roundup
Issued by NWS

Home | Current Version | Previous Version | Graphics & Text | Print | Product List | Glossary On
Versions: 1 2 3 4 5 6 7 8 9 10 11 12 13 14 15 16 17 18 19 20 21 22 23 24 25 26 27 28 29 30 31 32 33 34 35 36 37 38 39 40 41 42 43 44 45 46 47 48 49 50
115
ASUS44 KJAN 010203
RWRMS

MISSISSIPPI HOURLY WEATHER ROUNDUP
NATIONAL WEATHER SERVICE JACKSON MS
900 PM CDT TUE MAR 31 2015

NOTE: "FAIR: INDICATES FEW OR NO CLOUDS BELOW 12,000 FEET WITH NO
SIGNIFICANT WEATHER AND/OR OBSTRUCTIONS TO VISIBILITY.

MSZ001>002-007>008-010>013-018>021-025>028-034>036-010300-
NORTHWEST MISSISSIPPI

CITY           SKY/WX    TMP DP  RH WIND       PRES   REMARKS
CLARKSDALE       N/A     66  63  88 S6        29.94R
CLEVELAND      FAIR      64  63  99 SW3       29.95R
GREENWOOD      CLEAR     66  58  75 SW8       29.95R
GREENVILLE     CLEAR     64  59  83 S7        29.94R
OLIVE BRANCH   PTCLDY    66  66 100 CALM      29.93R
OXFORD         FAIR      66  59  77 SW6       29.94S
TUNICA         PTCLDY    64  61  88 SW8       29.93S
$$

MSZ003>006-009-014>017-022>024-029>033-037>039-010300-
NORTHEAST MISSISSIPPI

CITY           SKY/WX    TMP DP  RH WIND       PRES   REMARKS
COLUMBUS AFB   CLEAR     60  59  96 SE2       29.95R
CORINTH        MOCLDY    68  55  64 E21G26    29.93R
GOLDN TRIANGLE CLEAR     68  55  64 W3        29.95R
STARKVILLE     FAIR      61  55  82 CALM      29.96R
TUPELO         PTCLDY    64  58  80 CALM      29.94R
$$

MSZ040-058-010300-
CENTRAL MISSISSIPPI

CITY           SKY/WX    TMP DP  RH WIND       PRES   REMARKS
JACKSON INTL   PTCLDY    70  56  61 S7        29.98S
JACKSON HAWKNS CLEAR     71  55  56 S6        29.99R
MERIDIAN KEY   LGT RAIN  70  56  61 S17       29.94F
MERIDIAN NAS   CLOUDY    75  53  46 SW6       29.93F
RAYMOND        FAIR      73  68  83 S6        29.98S
VICKSBURG      CLEAR     73  57  57 S5        29.98R
$$

MSZ059>079-010300-
SOUTH MISSISSIPPI

CITY           SKY/WX    TMP DP  RH WIND       PRES   REMARKS
BROOKHAVEN     FAIR      66  61  82 CALM      30.03S
HATTIESBURG    CLEAR     70  59  68 CALM      30.03R
MCCOMB         CLEAR     70  60  70 S7        30.03R
NATCHEZ        CLEAR     72  55  56 S7        30.01R
PINE BELT      PTCLDY    64  55  72 CALM      30.04R
$$

MSZ080>082-010300-
COASTAL MISSISSIPPI

CITY           SKY/WX    TMP DP  RH WIND       PRES   REMARKS
BILOXI         CLEAR     73  67  83 W13       30.04R
PASCAGOULA     PTCLDY    71  65  81 VRB7      30.05R
GULFPORT       CLEAR     73  65  75 SW6       30.04R
$$



USA.gov is the U.S. government's official web portal to all federal, state and local government web resources and services.